Weather History for Galesburg, IL

Change the Weather History Date:

Wednesday, July 3, 2013

  Actual Average Record
Temperature  
Mean Temperature 65 °F -  
Max Temperature 78 °F 84 °F 97 °F (1949)
Min Temperature 53 °F 64 °F 48 °F (1968)
Growing Degree Days 15 (Base 50)    
Moisture  
Dew Point 52 °F    
Average Humidity 65    
Maximum Humidity 95    
Minimum Humidity 31    
Precipitation  
Precipitation 0.00 in - - ()
Sea Level Pressure  
Sea Level Pressure 30.06 in    
Wind  
Wind Speed 1 mph (NW)    
Max Wind Speed 8 mph    
Max Gust Speed -    
Visibility 10 miles    
Events      
Averages and records for this station are not official NWS values.
T = Trace of Precipitation, MM = Missing Value Source: NWS Daily Summary

Daily Weather History Graph

Daily Weather History Graph

Search for Another Location

Airport:

Trip Planner

Search our weather history database for the weather conditions in past years. The results will help you decide how hot, cold, wet, or windy it might be!

Date:

Astronomy

Jul. 03, 2013 Rise Set
Actual Time 5:34 AM CDT 8:37 PM CDT
Civil Twilight 5:01 AM CDT 9:10 PM CDT
Nautical Twilight 4:19 AM CDT 9:52 PM CDT
Astronomical Twilight 3:29 AM CDT 10:42 PM CDT
Moon 2:13 AM CDT (7/3) 4:47 PM CDT (7/3)
Length of Visible Light 16h 08m
Length of Day
15h 02m
Waning Crescent, 18% of the Moon is Illuminated
Jul 3
Waning Crescent
Jul 8
New
Jul 15
First Quarter
Jul 22
Full
Jul 29
Last Quarter

Hourly Weather History & Observations

Time (CDT) Temp. Dew Point Humidity Pressure Visibility Wind Dir Wind Speed Gust Speed Precip Events Conditions
12:15 AM 60.8 °F 53.6 °F 77% 30.08 in 10.0 mi Calm Calm - N/A   Clear
12:35 AM 59.5 °F 53.6 °F 81% 30.07 in 10.0 mi Calm Calm - N/A   Clear
12:55 AM 59.4 °F 53.4 °F 81% 30.07 in 10.0 mi Calm Calm - N/A   Clear
1:15 AM 57.9 °F 52.9 °F 83% 30.06 in 10.0 mi Calm Calm - N/A   Clear
1:35 AM 57.6 °F 53.2 °F 85% 30.06 in 10.0 mi Calm Calm - N/A   Clear
1:55 AM 57.6 °F 53.4 °F 86% 30.05 in 10.0 mi Calm Calm - N/A   Clear
2:15 AM 57.4 °F 54.0 °F 88% 30.05 in 10.0 mi Calm Calm - N/A   Clear
2:35 AM 57.2 °F 53.8 °F 88% 30.05 in 10.0 mi Calm Calm - N/A   Clear
2:55 AM 56.7 °F 53.2 °F 88% 30.04 in 10.0 mi Calm Calm - N/A   Clear
3:15 AM 56.1 °F 53.6 °F 91% 30.04 in 10.0 mi Calm Calm - N/A   Clear
3:35 AM 56.1 °F 52.9 °F 89% 30.04 in 10.0 mi Calm Calm - N/A   Clear
3:55 AM 54.9 °F 52.5 °F 92% 30.04 in 10.0 mi Calm Calm - N/A   Clear
4:15 AM 54.7 °F 52.9 °F 94% 30.05 in 10.0 mi Calm Calm - N/A   Clear
4:35 AM 55.2 °F 52.5 °F 91% 30.05 in 10.0 mi Calm Calm - N/A   Clear
4:55 AM 55.2 °F 53.2 °F 93% 30.06 in 10.0 mi Calm Calm - N/A   Clear
5:15 AM 54.5 °F 52.3 °F 92% 30.06 in 10.0 mi NW 3.5 mph - N/A   Clear
5:35 AM 54.5 °F 52.3 °F 92% 30.06 in 10.0 mi Calm Calm - N/A   Clear
5:55 AM 53.8 °F 52.3 °F 95% 30.07 in 7.0 mi Calm Calm - N/A   Clear
6:15 AM 53.1 °F 51.4 °F 94% 30.07 in 10.0 mi Calm Calm - N/A   Clear
6:35 AM 53.8 °F 52.2 °F 94% 30.07 in 10.0 mi Calm Calm - N/A   Clear
6:55 AM 55.8 °F 54.0 °F 94% 30.08 in 10.0 mi Calm Calm - N/A   Clear
7:15 AM 58.8 °F 54.1 °F 84% 30.07 in 10.0 mi Calm Calm - N/A   Clear
7:35 AM 60.1 °F 54.7 °F 82% 30.08 in 10.0 mi Calm Calm - N/A   Clear
7:55 AM 61.2 °F 55.4 °F 81% 30.08 in 10.0 mi Calm Calm - N/A   Clear
8:15 AM 61.9 °F 55.8 °F 80% 30.09 in 10.0 mi NE 3.5 mph - N/A   Clear
8:35 AM 63.5 °F 55.0 °F 74% 30.09 in 10.0 mi North 3.5 mph - N/A   Clear
8:55 AM 64.9 °F 54.9 °F 70% 30.09 in 10.0 mi Calm Calm - N/A   Clear
9:15 AM 67.1 °F 55.8 °F 67% 30.09 in 10.0 mi NE 4.6 mph - N/A   Clear
9:35 AM 68.9 °F 56.1 °F 64% 30.09 in 10.0 mi North 4.6 mph - N/A   Mostly Cloudy
9:55 AM 69.6 °F 55.6 °F 61% 30.09 in 10.0 mi WNW 3.5 mph - N/A   Overcast
10:15 AM 69.6 °F 55.8 °F 61% 30.09 in 10.0 mi Calm Calm - N/A   Overcast
10:35 AM 70.5 °F 55.4 °F 59% 30.09 in 10.0 mi Calm Calm - N/A   Overcast
10:55 AM 71.4 °F 55.0 °F 56% 30.09 in 10.0 mi Calm Calm - N/A   Scattered Clouds
11:15 AM 71.8 °F 55.4 °F 56% 30.09 in 10.0 mi NNW 3.5 mph - N/A   Scattered Clouds
11:35 AM 72.7 °F 52.7 °F 49% 30.09 in 10.0 mi NW 3.5 mph - N/A   Scattered Clouds
11:55 AM 72.7 °F 49.8 °F 44% 30.09 in 10.0 mi NW 5.8 mph - N/A   Clear
12:15 PM 73.6 °F 50.5 °F 44% 30.09 in 10.0 mi Calm Calm - N/A   Clear
12:35 PM 73.2 °F 52.0 °F 47% 30.08 in 10.0 mi NNW 5.8 mph - N/A   Clear
12:55 PM 73.9 °F 51.8 °F 46% 30.07 in 10.0 mi NNW 4.6 mph - N/A   Clear
1:15 PM 75.2 °F 50.9 °F 42% 30.07 in 10.0 mi WNW 3.5 mph - N/A   Clear
1:35 PM 73.2 °F 48.6 °F 42% 30.07 in 10.0 mi Calm Calm - N/A   Clear
1:55 PM 74.5 °F 49.1 °F 41% 30.06 in 10.0 mi Calm Calm - N/A   Clear
2:15 PM 76.3 °F 50.5 °F 40% 30.06 in 10.0 mi WNW 8.1 mph - N/A   Clear
2:35 PM 76.3 °F 45.9 °F 34% 30.06 in 10.0 mi Calm Calm - N/A   Clear
2:55 PM 77.4 °F 47.1 °F 34% 30.06 in 10.0 mi NNW 5.8 mph - N/A   Clear
3:15 PM 76.3 °F 45.3 °F 33% 30.06 in 10.0 mi Calm Calm - N/A   Clear
3:35 PM 77.0 °F 45.3 °F 32% 30.05 in 10.0 mi Calm Calm - N/A   Clear
3:55 PM 77.7 °F 46.9 °F 34% 30.05 in 10.0 mi North 3.5 mph - N/A   Clear
4:15 PM 76.8 °F 44.4 °F 32% 30.04 in 10.0 mi SSW 3.5 mph - N/A   Clear
4:35 PM 77.7 °F 44.4 °F 31% 30.04 in 10.0 mi Calm Calm - N/A   Clear
4:55 PM 77.4 °F 45.9 °F 33% 30.04 in 10.0 mi WSW 4.6 mph - N/A   Clear
5:15 PM 77.0 °F 45.9 °F 33% 30.04 in 10.0 mi WSW 4.6 mph - N/A   Clear
5:35 PM 77.0 °F 48.7 °F 37% 30.03 in 10.0 mi Calm Calm - N/A   Clear
5:55 PM 77.0 °F 46.8 °F 34% 30.03 in 10.0 mi Calm Calm - N/A   Clear
6:15 PM 76.8 °F 47.5 °F 35% 30.03 in 10.0 mi Calm Calm - N/A   Clear
6:35 PM 76.6 °F 48.6 °F 37% 30.03 in 10.0 mi Calm Calm - N/A   Clear
6:55 PM 75.7 °F 50.0 °F 40% 30.03 in 10.0 mi Calm Calm - N/A   Clear
7:15 PM 75.4 °F 50.4 °F 41% 30.03 in 10.0 mi Calm Calm - N/A   Clear
7:35 PM 73.9 °F 51.3 °F 45% 30.03 in 10.0 mi NNW 3.5 mph - N/A   Clear
7:55 PM 73.2 °F 49.3 °F 43% 30.04 in 10.0 mi Calm Calm - N/A   Clear
8:15 PM 72.1 °F 50.5 °F 46% 30.04 in 10.0 mi Calm Calm - N/A   Clear
8:35 PM 66.9 °F 54.7 °F 65% 30.04 in 10.0 mi Calm Calm - N/A   Clear
8:55 PM 65.8 °F 52.3 °F 62% 30.04 in 10.0 mi Calm Calm - N/A   Clear
9:15 PM 63.5 °F 54.9 °F 73% 30.05 in 10.0 mi Calm Calm - N/A   Clear
9:35 PM 61.9 °F 55.0 °F 78% 30.06 in 10.0 mi Calm Calm - N/A   Clear
9:55 PM 61.0 °F 55.8 °F 83% 30.07 in 10.0 mi Calm Calm - N/A   Clear
10:15 PM 61.0 °F 55.8 °F 83% 30.06 in 10.0 mi Calm Calm - N/A   Clear
10:35 PM 61.0 °F 54.1 °F 78% 30.06 in 10.0 mi Calm Calm - N/A   Clear
10:55 PM 60.8 °F 53.6 °F 77% 30.06 in 10.0 mi Calm Calm - N/A   Clear
11:15 PM 60.8 °F 54.3 °F 79% 30.06 in 10.0 mi Calm Calm - N/A   Clear
11:35 PM 60.4 °F 54.1 °F 80% 30.06 in 10.0 mi Calm Calm - N/A   Clear
11:55 PM 59.4 °F 54.1 °F 83% 30.06 in 10.0 mi Calm Calm - N/A   Clear